www.pogodaiklimat.ru

Погода и климат >> Архив погоды >> Мали >> Йелимане


ПОГОДА в Йелимане

  • Прогноз погоды в Йелимане
  • Монитор погоды в Йелимане

АРХИВ ПОГОДЫ в Йелимане

Время (UTC), дата Ветер
(напр.,м/с)
 
Видим.   Явления Облачность Т
(С)
Тd
(С)
f
(%)
Тe
(С)
Тes
(С)
Комфортность P
(гПа)
Po
(гПа)
Тmin
(С)
Tmax
(С)
R
(мм)
R24
(мм)
S
(см)
12 11.06 ЮЗ 3 10 км ясно +36.6 +20.3 39 +43 +60 опасность
перегрева
1010.1 998.8
18 11.06 ЮЗ 4 10 км ясно +39.8 +17.5 27 +42 +43 опасность
перегрева
1006.6 995.4 +41.2
00 12.06 Ю 3 10 км ясно +35.0 +19.9 41 +41 +41 опасность
перегрева
1008.9 997.7
06 12.06 Ю 6 10 км 3/0
[Ac lent Ci sp]
+32.4 +21.6 53 +41 +41 опасность
перегрева
1009.4 998.2 +32.4
12 12.06 ЮЗ 8 10 км 9/0
[Ac lent]
+35.5 +21.4 44 +43 +44 опасность
перегрева
1010.4 999.1
18 12.06 Ю 7 10 км 9/3 900 м
[Sc Ac As]
+35.5 +18.1 36 +39 +40 очень
душно
1008.9 997.6 +38.5
00 13.06 ЮЗ 5 10 км 9/0
[Ac As]
+32.5 +21.6 53 +41 +41 опасность
перегрева
1011.4 1000.1
06 13.06 штиль 0 10 км 6/0
[Ac lent Ci sp]
+30.5 +21.7 59 +39 +39 очень
душно
1011.4 1000.1 +30.0
12 13.06 З 3 10 км 3/0
[Ci sp]
+37.2 +17.0 30 +40 +56 опасность
солнечного
удара
1012.6 1001.3
18 13.06 ЮЗ 3 10 км 3/0
[Ci sp]
+40.8 +10.4 16 +39 +40 очень
жарко
1008.5 997.3 +42.0
21 13.06 штиль 0 10 км 6/0
[Ci sp]
+36.8 +13.5 25 +37 +37 очень
жарко
1010.9 999.6
00 14.06 В 1 10 км 8/0
[Ci sp]
+33.0 +10.2 25 +32 +32 жарко 1011.6 1000.3
03 14.06 СВ 3 10 км 8/0
[Ci sp]
+31.6 +11.0 28 +32 +32 жарко 1010.6 999.4
06 14.06 Ю 2 10 км 8/0
[Ac lent Ci sp]
+30.6 +9.3 27 +30 +30 жарко 1011.7 1000.4 +30.5
09 14.06 ЮЗ 5 10 км 9/0
[Ci sp]
+32.5 +19.8 47 +38 +42 очень
душно
1013.3 1002.0
12 14.06 Ю 4 10 км 6/0
[Ci sp]
+38.0 +14.5 25 +39 +51 опасность
солнечного
удара
1012.6 1001.3
15 14.06 С 6 10 км 8/0
[Ac lent Ci sp]
+41.1 +8.2 14 +39 +43 очень
жарко
1010.0 998.8
18 14.06 С 4 10 км 4/0
[Ac lent]
+42.5 +3.6 9 +39 +40 очень
жарко
1008.1 996.9 +43.7
21 14.06 С 3 10 км 4/0
[Ac lent]
+38.0 +6.7 15 +36 +36 очень
жарко
1010.2 998.9
00 15.06 В 2 10 км 6/0
[Ac lent]
+35.5 +10.0 21 +34 +34 очень
жарко
1010.9 999.7
03 15.06 В 4 10 км 6/0
[Ac As Cs]
+33.5 +6.2 18 +31 +31 жарко 1009.6 998.4
06 15.06 штиль 0 10 км 6/0
[Ac lent Ci sp]
+32.5 +11.4 28 +33 +33 жарко 1010.4 999.2 +32.5
09 15.06 ЮЗ 6 10 км 9/0
[Ci sp]
+37.0 +11.3 21 +36 +39 очень
жарко
1011.4 1000.2
12 15.06 ЮЗ 2 10 км 9/1 900 м
[Sc Ac As]
+41.5 +14.0 20 +42 +49 опасность
перегрева
1011.9 1000.7
15 15.06 ЮВ 8 10 км 9/0 150 м
[Ac As Ci sp]
+40.0 +13.9 21 +40 +42 очень
душно
1010.8 999.6
18 15.06 ЮВ 5 10 км 9/0
[Ac As]
+39.5 +14.3 23 +40 +41 очень
душно
1009.8 998.6 +42.0 0.0
21 15.06 ЮВ 3 10 км 9/0
[Ac lent]
+36.0 +16.8 32 +39 +39 очень
душно
1011.4 1000.2
00 16.06 ЮВ 2 10 км 4/0
[Ac lent]
+34.5 +17.7 37 +38 +38 очень
душно
1011.7 1000.5
03 16.06 штиль 0 10 км 9/0
[Ac lent Ci sp]
+32.0 +16.3 39 +35 +35 очень
душно
1010.4 999.2
06 16.06 штиль 0 10 км 9/0
[Ac As]
+31.5 +16.6 41 +35 +35 очень
душно
1011.3 1000.0 +30.5 0.0
09 16.06 ЮЗ 3 10 км 6/0
[Ac lent Ci sp]
+35.3 +17.4 35 +39 +43 очень
душно
1014.0 1002.7
12 16.06 ЮЗ 3 10 км 8/0
[Ac lent Ci sp]
+40.0 +16.9 26 +42 +52 опасность
перегрева
1012.9 1001.7
15 16.06 С 2 10 км 8/0
[Ac lent Ci sp]
+43.0 +12.9 17 +43 +51 опасность
перегрева
1009.3 998.1
18 16.06 С 4 10 км 9/0
[Ac lent Ci sp]
+43.0 +4.2 10 +40 +41 очень
жарко
1008.5 997.3 +44.0
21 16.06 штиль 0 10 км 9/0
[Ac lent Ci sp]
+38.6 +12.8 22 +39 +39 душно 1009.8 998.6
00 17.06 штиль 0 10 км 9/0
[Ac lent Ci sp]
+36.0 +11.4 23 +36 +36 очень
жарко
1009.8 998.6
03 17.06 штиль 0 10 км 9/0
[Ac lent]
+36.0 +8.1 18 +34 +34 очень
жарко
1008.4 997.3
06 17.06 ЮЗ 3 10 км 9/0
[Ac lent Ci sp]
+34.0 +8.7 21 +33 +33 жарко 1009.0 997.9 +34.0
09 17.06 Ю 3 10 км 3/0
[Ci sp]
+37.5 +13.9 25 +38 +44 очень
жарко
1011.3 1000.2
12 17.06 Ю 3 10 км 8/0
[Ci sp]
+43.3 +6.4 11 +41 +55 опасность
перегрева
1009.7 998.6
15 17.06 СЗ 2 10 км 8/0
[Ac lent Ci sp]
+46.0 +9.1 11 +44 +54 опасность
перегрева
1007.4 996.4
18 17.06 Ю 4 10 км 5/0
[Ci sp]
+43.2 +11.1 15 +42 +43 опасность
перегрева
1006.6 995.5 +46.4
21 17.06 штиль 0 10 км 5/0
[Ci sp]
+40.0 +14.7 23 +41 +41 опасность
перегрева
1009.4 998.3
00 18.06 З 2 10 км 4/0
[Ci sp]
+37.5 +17.7 31 +41 +41 опасность
перегрева
1010.4 999.3
03 18.06 СВ 2 10 км 4/0
[Ac lent]
+35.5 +16.0 31 +38 +38 очень
душно
1010.3 999.2
06 18.06 Ю 2 10 км 3/0
[Ci sp]
+33.9 +16.3 35 +37 +37 очень
душно
1010.7 999.6 +33.9

 

Местоположение метеостанции Йелимане (Мали): широта 15.12 долгота -10.56 высота над уровнем моря 100 м.

В архиве по умолчанию представлена погода в Йелимане за последнюю неделю. Архивные данные за месяц целиком и за предыдущие месяцы, начиная с января 2011 года, Вы можете получить, выбрав интересующий диапазон дат из раскрывающегося списка и нажав кнопку "Ввод!".


*Определитесь, кто Вы:
робот инопланетянин человек

Внимание! Время в таблицах - всемирное. Для получения местного времени необходимо прибавить поправку, которая равна 0 ч.

Смотрите также архив погоды в соседних городах и на ближайших метеорологических станциях:

Погода в Каесе (Мали) (121 км)
Погода в Ниоро-Дю-Сахель (Мали) (130 км)
Погода в Киффе (Мавритания) (190 км)
Погода в Аюн-эль-Атрус (Мавритания) (204 км)
Погода в Ките (Мали) (257 км)
Погода в Кеньебе (Мали) (263 км)
Погода в Матаме (Сенегал) (294 км)
Погода в Кедугу (Сенегал) (335 км)
Погода в Фатото (Гамбия) (335 км)
Погода в Каэди (Мавритания) (336 км)

Пояснения к столбцам:

Ветер - указаны скорость ветра в м/с - средняя за 10 мин, порывы в срок и между сроками (в фигурных скобках) и направление, откуда дует ветер: С - северный, СВ - северо-восточный, В - восточный, ЮВ - юго-восточный, Ю - южный, ЮЗ - юго-западный, З - западный, СЗ - северо-западный.
Видимость - горизонтальная дальность видимости в метрах или километрах. При видимости от 1 до 10 км при отсутствии осадков обычно наблюдается дымка, при ухудшении видимости до 1 км и менее - туман. В сухую погоду видимость может ухудшаться дымом, пылью или мглою.
Явления - указаны атмосферные явления, наблюдавшиеся в срок или в последний час перед сроком; фигурными скобками обозначены явления, наблюдавшиеся между сроками (за 1-3 часа до срока); квадратными скобками обозначены град или гололедные отложения с указанием их диаметра в мм.
Облачность - указаны через наклонную черту общая и нижняя облачность в баллах и высота нижней границы облаков в метрах; квадратными скобками обозначены формы облаков: Ci - перистые, Cs - перисто-слоистые, Cc - перисто-кучевые, Ac - высококучевые, As - высокослоистые, Sc - слоисто-кучевые, Ns - слоисто-дождевые, Cu - кучевые, Cb - кучево-дождевые. Подробнее классификацию облаков см. в Атласе облаков (PDF).
T - Температура воздуха - температура, измеренная на высоте 2 м над землей.
Td - Температура точки росы - температура, при понижении до которой содержащийся в воздухе водяной пар достигнет насыщения.
f - Относительная влажность воздуха - влажноcть воздуха, измеренная на высоте 2 м над землей.
Te - Эффективная температура - температура, которую ощущает одетый по сезону человек в тени. Характеристика душности погоды. При расчете учитывается влияние влажности воздуха и скорости ветра на теплоощущения человека.
Tes - Эффективная температура на солнце - температура, которую ощущает человек, с поправкой на солнечный нагрев. Характеристика знойности погоды. Зависит от высоты солнца над горизонтом, облачности и скорости ветра. Ночью, в пасмурную погоду, а также при ветре 12 м/с и более поправка равна нулю.
P - Атмосферное давление - приведенное к уровню моря атмосферное давление.
Po - Атмосферное давление - измеренное на уровне метеостанции атмосферное давление.
Tmin - Минимальная температура - минимум температуры воздуха на высоте 2 м над землей.
Tmax - Максимальная температура - максимум температуры воздуха на высоте 2 м над землей.
R - Количество осадков - Количество выпавших осадков за период времени, мм. При наведении курсора мыши на число - период времени, за который выпало указанное количество осадков.
R24 - Количество осадков - Количество выпавших осадков за 24 часа, мм.
S - Снежный покров - Высота снежного покрова, см. При наведении курсора мыши на число - состояние снежного покрова и степень покрытия местности в баллах.